Regional Weather Roundup
Issued by NWS Memphis, TN

Home | Current Version | Previous Version | Text Only | Print | Product List | Glossary On
Versions: 1 2 3 4 5 6 7 8 9 10 11 12 13 14 15 16 17 18 19 20 21 22 23 24 25 26 27 28 29 30 31 32 33 34 35 36 37 38 39 40 41 42 43 44 45 46 47 48 49 50
000
ASUS44 KMEG 030510
RWRMEG
MEMPHIS CWA HOURLY WEATHER ROUNDUP
NATIONAL WEATHER SERVICE MEMPHIS TN
1200 AM CDT MON AUG 03 2015

...WEST TENNESSEE...

CITY           SKY/WX    TMP DP  RH WIND       PRES   REMARKS
MEMPHIS INTL   PTCLDY    80  68  66 S3        29.92R
NWS MEMPHIS      N/A     75 N/A N/A MISG        N/A
JACKSON        CLEAR     72  69  90 CALM      29.92S FOG
LEXINGTON      CLEAR     70  70 100 CALM      29.92S
DYERSBURG        N/A    N/A N/A N/A MISG        N/A
PARIS          CLEAR     66  64  94 CALM      29.92F


...EASTERN ARKANSAS...

CITY           SKY/WX    TMP DP  RH WIND       PRES   REMARKS
JONESBORO      CLEAR     73  71  93 W3        29.91R
WEST MEMPHIS   CLEAR     74  72  93 CALM      29.90S
BATESVILLE     CLEAR     75  68  78 CALM      29.93R
NEWPORT        CLEAR     80  72  76 SW3       29.93R
WALNUT RIDGE   CLEAR     79  70  73 SW6       29.91S
BLYTHEVILLE    CLEAR     78  74  87 S5        29.91R
SEARCY         PTCLDY    74  71  91 CALM      29.93R
STUTTGART      PTCLDY    82  68  61 MISG      29.92R
PINE BLUFF     CLEAR     74  69  85 CALM      29.91S
MONTICELLO     PTCLDY    74  69  85 CALM      29.92R


...NORTH MISSISSIPPI...

CITY           SKY/WX    TMP DP  RH WIND       PRES   REMARKS
TUPELO         PTCLDY    77  66  68 CALM      29.92R
OLIVE BRANCH     N/A     75  73  94 CALM      29.93S
TUNICA         PTCLDY    75  73  94 CALM      29.92S
CLARKSDALE     PTCLDY    75  73  94 CALM      29.92R
CORINTH          N/A     70  64  83 SE3       29.92R
GREENWOOD      CLEAR     76  70  82 NE3       29.90R
COLUMBUS       CLEAR     73  69  89 CALM      29.90R
STARKVILLE     FAIR      70  68  94 CALM      29.91S
GOLDEN TRIANGL CLEAR     73  64  73 CALM      29.90S


...SOUTHEAST MISSOURI...

CITY           SKY/WX    TMP DP  RH WIND       PRES   REMARKS
WEST PLAINS    CLEAR     75  68  78 SW3       29.97S
POPLAR BLUFF   CLEAR     77  72  84 SW5       29.89S
CAPE GIRARDEAU PTCLDY    76  71  85 SW5       29.88F


...NORTHWEST ALABAMA...

CITY           SKY/WX    TMP DP  RH WIND       PRES   REMARKS
MUSCLE SHOALS  PTCLDY    68  63  84 CALM      29.94R


...MIDDLE TENNESSEE...

CITY           SKY/WX    TMP DP  RH WIND       PRES   REMARKS
NASHVILLE      CLEAR     72  64  76 CALM      29.93S
CLARKSVILLE    CLEAR     67  65  93 CALM      29.92R
COLUMBIA       CLEAR     66  66 100 CALM      29.93S


...WESTERN KENTUCKY...

CITY           SKY/WX    TMP DP  RH WIND       PRES   REMARKS
PADUCAH        CLEAR     78  71  79 S5        29.89S
FORT CAMPBELL  CLEAR     74  65  74 CALM      29.91S


...CENTRAL ARKANSAS...

CITY           SKY/WX    TMP DP  RH WIND       PRES   REMARKS
LITTLE ROCK    PTCLDY    80  68  66 CALM      29.92R


SKY/WX REPORTED AS FAIR MEANS FEW OR NO CLOUDS BELOW
12 THOUSAND FEET.



USA.gov is the U.S. government's official web portal to all federal, state and local government web resources and services.